Location: *
(58.7167°N, 26.1833°E)
Time: 23:08:04
(UTC+00:00)

Cosmos 2181 Rocket - Pass Details

Date: 25 August 2019
Orbit: 953 x 1014 km, 82.9° (Epoch: 21 September)

Event Time Altitude Azimuth Distance (km) Brightness Sun altitude
Exits shadow 21:31:54 33° 193° (SSW) 1,569 4.6 -20.1°
Maximum altitude 21:34:55 87° 282° (WNW) 969 3.9 -20.1°
Drops below altitude 10° 21:41:10 10° 13° (NNE) 2,722 7.3 -20.3°
Sets 21:43:42 0° 14° (NNE) 3,681 8.2 -20.3°
